BJN108 ZBAA-ZGHA

Flight info

Callsign BJN108
Flight time N/A
Altitude 32100
Route RUSDO W45 IPLEV B458 DADGA W37 GUSIV
Aircraft B737/M-SDE2E3FGHIRWXY/LB1

Departure

Time 2026-05-07 13:23
Airport Beijing Capital International Airport (ZBAA)

Arrival

Time N/A
Airport Changsha Huanghua International Airport (ZGHA)
Time Latitude Longitude Altitude Speed Heading
2026-05-07 12:15 40.05307 116.59501 123 ft 0 kts 353°
2026-05-07 13:14 40.05305 116.59501 121 ft 2 kts 353°
2026-05-07 13:14 40.05288 116.59502 120 ft 3 kts
2026-05-07 13:15 40.05270 116.59495 118 ft 3 kts 47°
2026-05-07 13:15 40.05263 116.59480 118 ft 1 kts 83°
2026-05-07 13:15 40.05263 116.59479 118 ft 1 kts 83°
2026-05-07 13:19 40.05265 116.59501 122 ft 5 kts 83°
2026-05-07 13:20 40.05272 116.59568 119 ft 10 kts 83°
2026-05-07 13:20 40.05309 116.59622 121 ft 10 kts 358°
2026-05-07 13:20 40.05375 116.59611 121 ft 10 kts 350°
2026-05-07 13:20 40.05443 116.59618 120 ft 10 kts 33°
2026-05-07 13:21 40.05464 116.59700 123 ft 9 kts 83°
2026-05-07 13:21 40.05471 116.59790 123 ft 10 kts 84°
2026-05-07 13:21 40.05476 116.59846 121 ft 4 kts 82°
2026-05-07 13:22 40.05477 116.59851 120 ft 2 kts 82°
2026-05-07 13:22 40.05486 116.59887 121 ft 7 kts 65°
2026-05-07 13:22 40.05525 116.59946 121 ft 10 kts 39°
2026-05-07 13:23 40.05597 116.60004 122 ft 14 kts 10°
2026-05-07 13:23 40.05890 116.59963 125 ft 85 kts 353°
2026-05-07 13:23 40.06766 116.59790 150 ft 163 kts 349°
2026-05-07 13:23 40.07941 116.59574 1004 ft 175 kts 353°
2026-05-07 13:24 40.09185 116.59410 2011 ft 184 kts 355°
2026-05-07 13:24 40.10465 116.59243 3048 ft 194 kts 353°
2026-05-07 13:24 40.11904 116.59019 3552 ft 224 kts 353°
2026-05-07 13:24 40.13489 116.58775 4341 ft 237 kts 353°
2026-05-07 13:25 40.15182 116.58510 5178 ft 250 kts 352°
2026-05-07 13:25 40.16926 116.58203 6330 ft 254 kts 346°
2026-05-07 13:25 40.18436 116.57057 7571 ft 255 kts 314°
2026-05-07 13:25 40.19330 116.55051 8782 ft 261 kts 289°
2026-05-07 13:26 40.19503 116.52657 9919 ft 272 kts 266°
2026-05-07 13:26 40.18937 116.50243 10839 ft 288 kts 250°
2026-05-07 13:26 40.18021 116.47751 11197 ft 321 kts 246°
2026-05-07 13:26 40.16946 116.45088 11457 ft 350 kts 245°
2026-05-07 13:27 40.15762 116.42232 12212 ft 362 kts 245°
2026-05-07 13:27 40.14555 116.39321 13223 ft 365 kts 246°
2026-05-07 13:27 40.13346 116.36385 14239 ft 369 kts 246°
2026-05-07 13:27 40.12133 116.33410 15115 ft 374 kts 247°
2026-05-07 13:28 40.10911 116.30388 15980 ft 379 kts 247°
2026-05-07 13:28 40.09675 116.27321 16839 ft 384 kts 247°
2026-05-07 13:28 40.08426 116.24215 17696 ft 389 kts 248°
2026-05-07 13:28 40.07180 116.21114 18513 ft 394 kts 248°
2026-05-07 13:29 40.05901 116.17934 19238 ft 397 kts 248°
2026-05-07 13:29 40.04611 116.14727 19667 ft 399 kts 248°
2026-05-07 13:29 40.03393 116.11708 19823 ft 402 kts 248°
2026-05-07 13:29 40.02090 116.08478 19825 ft 402 kts 248°
2026-05-07 13:30 40.00784 116.05245 19934 ft 406 kts 248°
2026-05-07 13:30 39.99461 116.01967 20600 ft 409 kts 248°
2026-05-07 13:30 39.98137 115.98697 21540 ft 407 kts 249°
2026-05-07 13:30 39.96814 115.95430 22330 ft 409 kts 249°
2026-05-07 13:31 39.95494 115.92172 23045 ft 414 kts 249°
2026-05-07 13:31 39.94144 115.88841 23733 ft 418 kts 250°
2026-05-07 13:31 39.92779 115.85478 24336 ft 421 kts 250°
2026-05-07 13:31 39.91406 115.82101 24910 ft 423 kts 250°
2026-05-07 13:32 39.90023 115.78703 25372 ft 426 kts 250°
2026-05-07 13:32 39.88630 115.75286 25844 ft 429 kts 250°
2026-05-07 13:32 39.87227 115.71855 26409 ft 430 kts 250°
2026-05-07 13:32 39.85823 115.68423 27031 ft 430 kts 250°
2026-05-07 13:33 39.84415 115.64982 27618 ft 431 kts 250°
2026-05-07 13:33 39.83004 115.61536 28203 ft 432 kts 250°
2026-05-07 13:33 39.81611 115.58137 28809 ft 430 kts 250°
2026-05-07 13:33 39.80207 115.54721 29576 ft 426 kts 251°
2026-05-07 13:34 39.78817 115.51339 30385 ft 421 kts 251°
2026-05-07 13:34 39.76079 115.44686 31661 ft 413 kts 251°
2026-05-07 13:34 39.74749 115.41391 32166 ft 411 kts 251°
2026-05-07 13:35 39.73446 115.38105 32197 ft 405 kts 252°
2026-05-07 13:35 39.70907 115.31668 32256 ft 402 kts 252°
2026-05-07 13:36 39.68361 115.25197 32245 ft 407 kts 252°
2026-05-07 13:36 39.65765 115.18657 32264 ft 408 kts 252°
2026-05-07 13:37 39.63146 115.12081 32259 ft 414 kts 251°
2026-05-07 13:37 39.60476 115.05386 32252 ft 420 kts 251°
2026-05-07 13:38 39.57783 114.98668 32258 ft 420 kts 251°
2026-05-07 13:38 39.55106 114.92005 32260 ft 420 kts 251°
2026-05-07 13:39 39.52410 114.85299 32264 ft 419 kts 251°
2026-05-07 13:39 39.49716 114.78611 32264 ft 419 kts 251°
2026-05-07 13:40 39.47021 114.71940 32268 ft 417 kts 251°
2026-05-07 13:40 39.44351 114.65340 32274 ft 416 kts 251°
2026-05-07 13:41 39.41668 114.58720 32253 ft 414 kts 251°
2026-05-07 13:41 39.38996 114.52143 32259 ft 412 kts 251°
2026-05-07 13:42 39.36325 114.45595 32271 ft 412 kts 251°
2026-05-07 13:42 39.33164 114.39346 32275 ft 434 kts 232°
2026-05-07 13:42 39.30698 114.37051 32260 ft 456 kts 217°
2026-05-07 13:43 39.27659 114.35609 32280 ft 477 kts 201°
2026-05-07 13:43 39.24284 114.35294 32263 ft 499 kts 182°
2026-05-07 13:43 39.20826 114.36083 32281 ft 509 kts 174°
2026-05-07 13:44 39.13911 114.38122 32252 ft 509 kts 175°
2026-05-07 13:44 39.06981 114.39923 32258 ft 508 kts 176°
2026-05-07 13:45 39.00092 114.41656 32246 ft 508 kts 176°
2026-05-07 13:45 38.93151 114.43413 32235 ft 508 kts 177°
2026-05-07 13:46 38.86214 114.45170 32228 ft 508 kts 177°
2026-05-07 13:46 38.79293 114.46919 32217 ft 506 kts 178°
2026-05-07 13:47 38.72451 114.48653 32222 ft 503 kts 178°
2026-05-07 13:47 38.65587 114.50396 32214 ft 502 kts 178°
2026-05-07 13:48 38.58741 114.52129 32223 ft 501 kts 178°